This demonstration page uses our WeatherBlox Daily Observations layout. Learn more.

Left ArrowRight Arrow

44.8408, -93.29828

Hourly Observations for December 18, 2017

Temp ( °F °C ) Dew Point ( °F °C ) Humidity (%) Winds ( mph kmh ) Pressure ( in mb ) Visibility ( mi km ) Precip ( " mm )
12:28 am 00:28 Cloudy with Mist and Fog 26 -3.3 26 -3.3 100 100 SSW 5 7 29.97 1015 4 6 0.00 0.00
12:53 am 00:53 Cloudy with Mist and Fog 26 -3.3 26 -3.3 100 100 SW 5 7 29.95 1014 4 6 0.00 0.00
1:53 am 01:53 Cloudy with Mist and Fog 26 -3.3 26 -3.3 100 100 Calm 29.93 1014 4 6 0.00 0.00
2:53 am 02:53 Cloudy with Mist and Fog 26 -3.3 25 -3.9 96 96 SSE 5 7 29.92 1013 4 6 0.00 0.00
3:10 am 03:10 Cloudy with Mist and Fog 26 -3.3 25 -3.9 96 96 SSE 5 7 29.94 1014 5 8 0.00 0.00
3:53 am 03:53 Cloudy with Mist and Fog 25 -3.9 25 -3.9 100 100 SE 5 7 29.90 1012 5 8 0.00 0.00
4:53 am 04:53 Cloudy with Mist and Fog 26 -3.3 25 -3.9 96 96 SSE 5 7 29.88 1012 5 8 0.00 0.00
5:53 am 05:53 Mostly Cloudy with Mist and Fog 26 -3.3 25 -3.9 96 96 S 6 9 29.86 1011 5 8 0.00 0.00
6:53 am 06:53 Mostly Cloudy with Mist and Fog 28 -2.2 26 -3.3 92 92 S 6 9 29.85 1011 5 8 0.00 0.00
7:53 am 07:53 Mostly Cloudy with Mist and Fog 25 -3.9 24 -4.4 96 96 SSE 6 9 29.84 1011 6 10 0.00 0.00
8:53 am 08:53 Cloudy 29 -1.7 26 -3.3 89 89 S 6 9 29.82 1010 7 11 0.00 0.00
9:53 am 09:53 Mostly Cloudy 31 -0.6 27 -2.8 85 85 SSW 10 17 29.82 1010 8 13 0.00 0.00
10:53 am 10:53 Mostly Cloudy 34 1.1 28 -2.2 79 79 SSW 9 15 29.79 1009 10 16 0.00 0.00
11:53 am 11:53 Mostly Cloudy 35 1.7 28 -2.2 76 76 SW 10 17 29.76 1008 10 16 0.00 0.00
12:53 pm 12:53 Cloudy 36 2.2 29 -1.7 76 76 SW 8 13 29.74 1007 10 16 0.00 0.00
1:53 pm 13:53 Cloudy 36 2.2 29 -1.7 76 76 SSW 7 11 29.72 1006 10 16 0.00 0.00
2:53 pm 14:53 Cloudy 37 2.8 30 -1.1 76 76 SSW 7 11 29.70 1006 10 16 0.00 0.00
3:53 pm 15:53 Cloudy 39 3.9 31 -0.6 73 73 SSW 7 11 29.68 1005 10 16 0.00 0.00
4:53 pm 16:53 Cloudy 39 3.9 32 0 76 76 SSW 5 7 29.68 1005 10 16 0.00 0.00
5:53 pm 17:53 Cloudy 41 5 32 0 70 70 SW 9 15 29.67 1005 10 16 0.00 0.00
6:53 pm 18:53 Cloudy 42 5.6 30 -1.1 62 62 SW 12 19 29.67 1005 10 16 0.00 0.00
7:53 pm 19:53 Cloudy 42 5.6 30 -1.1 62 62 WSW 8 13 29.69 1005 10 16 0.00 0.00
8:53 pm 20:53 Partly Cloudy 41 5 30 -1.1 65 65 WSW 6 9 29.69 1006 10 16 0.00 0.00
9:53 pm 21:53 Clear 39 3.9 29 -1.7 67 67 WSW 9 15 29.70 1006 10 16 0.00 0.00
10:53 pm 22:53 Clear 37 2.8 29 -1.7 73 73 WSW 6 9 29.71 1006 10 16 0.00 0.00
11:53 pm 23:53 Clear 36 2.2 29 -1.7 76 76 SW 7 11 29.73 1007 10 16 0.00 0.00

Powered by AerisWeather